This demonstration page uses our WeatherBlox Daily Observations layout. Learn more.

Left ArrowRight Arrow

36.17497, -115.13722

Hourly Observations for April 30, 2016

Temp ( °F °C ) Dew Point ( °F °C ) Humidity (%) Winds ( mph kmh ) Pressure ( in mb ) Visibility ( mi km ) Precip ( " mm )
12:53 am 00:53 Mostly Cloudy 65 18.3 38 3.3 37 37 NE 14 22 29.69 1006 10 16.0934 0 0.0254
1:41 am 01:41 Cloudy with Rain 58 14.4 48 8.9 70 70 N 20 31 29.65 1004 6 9.65604 0.03 0.762
1:53 am 01:53 Cloudy with Light Rain 57 13.9 48 8.9 72 72 NNW 23 37 29.75 1007 9 14.48406 0.05 1.27
2:53 am 02:53 Cloudy with Light Rain 54 12.2 46 7.8 75 75 NNW 25 41 29.74 1007 10 16.0934 0.04 1.016
3:53 am 03:53 Cloudy with Light Rain 52 11.1 43 6.1 72 72 NNW 21 33 29.76 1008 10 16.0934 0.01 0.254
4:53 am 04:53 Cloudy with Light Rain 50 10 43 6.1 77 77 NNW 18 30 29.75 1007 10 16.0934 0.02 0.508
5:53 am 05:53 Cloudy with Light Rain 49 9.4 44 6.7 83 83 NNW 15 24 29.76 1008 8 12.87472 0.11 2.794
6:53 am 06:53 Cloudy with Light Rain 49 9.4 44 6.7 83 83 NNW 16 26 29.77 1008 9 14.48406 0.06 1.524
7:53 am 07:53 Cloudy with Rain 49 9.4 43 6.1 80 80 NNW 17 28 29.78 1009 6 9.65604 0.09 2.286
8:53 am 08:53 Cloudy with Light Rain 49 9.4 43 6.1 80 80 NW 16 26 29.79 1009 7 11.26538 0.14 3.556
9:53 am 09:53 Cloudy 51 10.6 45 7.2 80 80 NW 9 15 29.8 1009 10 16.0934 0.01 0.254
10:53 am 10:53 Cloudy 54 12.2 44 6.7 69 69 NNW 10 17 29.8 1009 10 16.0934 0 0
11:53 am 11:53 Cloudy 56 13.3 46 7.8 70 70 NNW 15 24 29.79 1009 10 16.0934 0 0
12:53 pm 12:53 Cloudy 59 15 45 7.2 60 60 NNW 17 28 29.78 1009 10 16.0934 0 0
1:53 pm 13:53 Partly Cloudy 62 16.7 45 7.2 54 54 NNW 15 24 29.78 1009 10 16.0934 0 0
2:53 pm 14:53 Mostly Cloudy 63 17.2 45 7.2 52 52 NW 14 22 29.79 1009 10 16.0934 0 0
3:53 pm 15:53 Mostly Cloudy 65 18.3 45 7.2 49 49 NNW 9 15 29.77 1008 10 16.0934 0 0
4:53 pm 16:53 Cloudy with Light Rain 58 14.4 50 10 75 75 SE 9 15 29.81 1010 10 16.0934 0 0.0254
5:53 pm 17:53 Mostly Cloudy 56 13.3 50 10 81 81 SSW 6 9 29.83 1010 10 16.0934 0.03 0.762
6:53 pm 18:53 Cloudy 57 13.9 50 10 78 78 NW 7 11 29.83 1010 10 16.0934 0 0
7:53 pm 19:53 Clear 57 13.9 51 10.6 81 81 Calm 29.83 1010 10 16.0934 0 0
8:53 pm 20:53 Cloudy 57 13.9 52 11.1 83 83 SW 3 6 29.87 1011 10 16.0934 0 0
9:53 pm 21:53 Cloudy 57 13.9 52 11.1 83 83 N 6 9 29.88 1012 10 16.0934 0 0
10:53 pm 22:53 Cloudy 59 15 49 9.4 69 69 NNW 8 13 29.86 1011 10 16.0934 0 0
11:53 pm 23:53 Clear 58 14.4 47 8.3 67 67 N 8 13 29.85 1011 10 16.0934 0 0

Powered by AerisWeather